IW5EFR Vecchia di Pontedera IT current weather conditions

sailwx.info

Wind from 135 at 0 knots gusting 2

Air temperature 17.8° C
Dewpoint 14.7° C

Last reported at 2014-Aug-21 20:40 UTC.
Time now 2014-Aug-21 22:01 UTC

Location: N 43°37' E 010°38'.
View on Google Maps.

See reports from other nearby stations

  
Tides and Currents Weather Stations Pressure Air Temp Water Temp Dewpoint Dewpoint Depression Visibility Wind Speed Wind Dir Waves Ship Positions
date/time (UTC)wind fromknots sea level pressurealtimeterstation pressurevisibilityair tempwater tempwave heightnotes
2014-Aug-21 20:40 135 0 gusting 2 17.8
2014-Aug-21 20:18 186 18.9
2014-Aug-21 20:07 188 1 gusting 3 18.3
2014-Aug-21 19:56 182 3 gusting 1 18.9
2014-Aug-21 19:34 182 20.0
2014-Aug-21 19:23 182 0 gusting 3 20.6
2014-Aug-21 19:12 250 21.1
2014-Aug-21 19:01 250 21.7
2014-Aug-21 18:50 250 21.7
2014-Aug-21 18:39 250 22.2
2014-Aug-21 18:28 250 22.8
2014-Aug-21 18:17 250 23.3
2014-Aug-21 17:55 277 23.9
2014-Aug-21 17:33 261 0 gusting 7 24.4
2014-Aug-21 17:11 271 1 gusting 8 25.0
2014-Aug-21 17:00 257 6 gusting 10 25.0
2014-Aug-21 16:49 273 3 gusting 7 25.6
2014-Aug-21 16:27 234 5 gusting 8 25.0
2014-Aug-21 16:16 259 6 gusting 6 25.0
2014-Aug-21 16:05 273 6 gusting 7 25.6
2014-Aug-21 15:43 196 0 gusting 6 26.1
2014-Aug-21 15:32 277 0 gusting 8 26.1
2014-Aug-21 15:10 277 4 gusting 9 26.1
2014-Aug-21 14:59 216 0 gusting 10 26.1
2014-Aug-21 14:26 265 6 gusting 10 26.1
2014-Aug-21 14:15 265 1 gusting 9 26.1
2014-Aug-21 14:04 311 5 gusting 9 26.1
2014-Aug-21 13:42 282 6 gusting 13 26.7
2014-Aug-21 13:31 300 6 gusting 10 26.7
2014-Aug-21 13:20 270 11 gusting 13 27.2
2014-Aug-21 13:09 281 2 gusting 9 27.2
2014-Aug-21 12:58 323 5 gusting 13 27.2
2014-Aug-21 12:47 273 6 gusting 10 26.7
2014-Aug-21 12:25 341 6 gusting 8 26.7
2014-Aug-21 12:14 289 0 gusting 7 26.1
2014-Aug-21 11:52 293 3 gusting 9 26.7
2014-Aug-21 11:08 254 3 gusting 9 26.1
2014-Aug-21 10:57 263 0 gusting 9 25.6
2014-Aug-21 10:46 250 6 gusting 9 25.6
2014-Aug-21 10:35 248 0 gusting 11 25.6
2014-Aug-21 10:24 298 4 gusting 11 25.6
2014-Aug-21 10:02 209 1 gusting 8 25.6
2014-Aug-21 09:40 265 3 gusting 11 25.0
2014-Aug-21 09:29 259 1 gusting 10 25.0
2014-Aug-21 08:56 290 6 gusting 7 24.4
2014-Aug-21 08:45 259 0 gusting 6 24.4
2014-Aug-21 08:23 328 24.4
2014-Aug-21 08:12 144 23.9
2014-Aug-21 08:01 144 23.3
2014-Aug-21 07:50 144 22.2
2014-Aug-21 07:39 138 3 gusting 8 21.7
2014-Aug-21 06:55 154 1 gusting 6 18.9
2014-Aug-21 06:33 157 3 gusting 8 18.9
2014-Aug-21 06:22 167 1 gusting 4 18.3
2014-Aug-21 06:11 166 6 gusting 4 17.8
2014-Aug-21 06:00 133 1 gusting 5 17.2
2014-Aug-21 05:49 136 3 gusting 4 16.7
2014-Aug-21 05:38 149 3 gusting 1 16.7
2014-Aug-21 05:27 146 1 16.7
2014-Aug-21 05:16 146 16.1
2014-Aug-21 05:05 146 16.1
2014-Aug-21 04:54 146 0 16.1
2014-Aug-21 04:43 146 16.7
2014-Aug-21 03:48 132 2 16.7
2014-Aug-21 03:26 129 16.7
2014-Aug-21 03:04 129 1 gusting 6 17.2
2014-Aug-21 02:53 129 2 gusting 5 17.2
2014-Aug-21 02:42 165 3 gusting 5 17.2
2014-Aug-21 02:31 154 5 gusting 4 17.2
2014-Aug-21 02:20 159 3 gusting 5 17.2
2014-Aug-21 02:09 159 3 gusting 3 17.2
2014-Aug-21 01:58 165 4 gusting 1 17.2
2014-Aug-21 01:47 171 17.2
2014-Aug-21 01:25 171 17.2
2014-Aug-21 01:14 171 0 gusting 5 17.8
2014-Aug-21 01:03 173 2 gusting 4 17.8
2014-Aug-21 00:52 177 17.8
2014-Aug-21 00:41 178 2 gusting 3 17.8
2014-Aug-21 00:30 178 1 gusting 4 17.8
2014-Aug-21 00:19 178 1 gusting 1 18.3
2014-Aug-21 00:08 180 18.3
2014-Aug-20 23:57 180 0 gusting 3 18.3
2014-Aug-20 23:46 183 3 gusting 2 18.3
2014-Aug-20 23:24 192 18.3
2014-Aug-20 23:13 192 18.9
2014-Aug-20 23:02 192 18.9
2014-Aug-20 22:40 192 19.4
2014-Aug-20 22:29 192 19.4
2014-Aug-20 22:18 192 20.0
2014-Aug-20 22:07 203 0 gusting 0 20.6
2014-Aug-20 21:56 203 21.1
2014-Aug-20 21:45 203 21.7
2014-Aug-20 21:23 198 22.2
2014-Aug-20 21:12 194 22.2
2014-Aug-20 20:50 217 22.2
2014-Aug-20 19:55 261 0 gusting 5 22.8
2014-Aug-20 19:44 264 3 gusting 4 22.8
2014-Aug-20 19:22 217 1 gusting 1 23.3
2014-Aug-20 19:11 199 23.3
2014-Aug-20 19:00 198 23.3
2014-Aug-20 18:38 231 23.9
2014-Aug-20 18:27 231 24.4
2014-Aug-20 17:32 278 3 gusting 6 25.0
2014-Aug-20 17:21 272 6 gusting 9 25.0
2014-Aug-20 17:10 273 0 gusting 8 25.6
2014-Aug-20 16:48 266 5 gusting 8 25.6
2014-Aug-20 16:04 251 4 gusting 9 26.7
2014-Aug-20 15:53 277 2 gusting 8 26.7
2014-Aug-20 15:42 255 6 gusting 8 27.2
2014-Aug-20 15:31 275 6 gusting 11 27.2
2014-Aug-20 15:20 279 2 gusting 9 27.2
2014-Aug-20 15:09 269 3 gusting 6 27.2
2014-Aug-20 14:58 254 2 gusting 10 27.8
2014-Aug-20 14:47 217 2 gusting 8 27.8
2014-Aug-20 14:36 264 5 gusting 6 27.8
2014-Aug-20 14:14 241 3 gusting 8 27.8
2014-Aug-20 13:52 227 5 gusting 8 28.3
2014-Aug-20 13:30 230 3 gusting 8 28.9
2014-Aug-20 13:08 261 3 gusting 8 28.3
2014-Aug-20 12:57 221 1 gusting 8 28.3
2014-Aug-20 12:46 207 1 gusting 10 28.3
2014-Aug-20 12:35 218 1 gusting 6 28.3
2014-Aug-20 12:24 244 3 gusting 11 28.3
2014-Aug-20 12:02 223 1 gusting 9 28.3
2014-Aug-20 11:29 246 3 gusting 8 28.3
2014-Aug-20 11:07 224 2 gusting 5 28.3
2014-Aug-20 10:56 187 2 gusting 6 27.8
2014-Aug-20 10:45 242 0 gusting 6 27.8
2014-Aug-20 10:34 292 0 gusting 6 27.2
2014-Aug-20 10:23 263 0 gusting 6 26.7
2014-Aug-20 10:12 269 1 gusting 6 26.1
2014-Aug-20 10:01 265 0 gusting 6 26.7
2014-Aug-20 09:39 265 2 gusting 6 26.1
2014-Aug-20 09:28 287 0 gusting 5 25.6
2014-Aug-20 09:17 310 1 gusting 4 25.0
2014-Aug-20 08:44 033 0 gusting 1 25.0
2014-Aug-20 08:33 034 25.0
2014-Aug-20 08:11 026 1 gusting 2 23.9
2014-Aug-20 08:00 013 0 gusting 4 23.3
2014-Aug-20 07:49 014 1 gusting 4 22.8
2014-Aug-20 07:38 015 22.2
2014-Aug-20 07:27 130 1 gusting 2 21.7
2014-Aug-20 07:16 153 21.1
2014-Aug-20 06:10 059 18.9
2014-Aug-20 05:59 059 0 18.3
2014-Aug-20 05:26 059 17.8
2014-Aug-20 05:04 059 17.2
2014-Aug-20 04:31 059 1 17.8
2014-Aug-20 03:58 059 0 gusting 2 18.3
2014-Aug-20 03:47 059 1 18.9
2014-Aug-20 03:25 059 18.9
2014-Aug-20 03:14 059 0 19.4
2014-Aug-20 03:03 059 19.4
2014-Aug-20 02:52 059 0 gusting 1 19.4
2014-Aug-20 02:41 059 1 gusting 3 19.4
2014-Aug-20 02:19 059 19.4
2014-Aug-20 02:08 059 19.4
2014-Aug-20 01:57 059 19.4
2014-Aug-20 01:35 079 19.4
2014-Aug-20 00:29 153 2 gusting 6 18.9
2014-Aug-20 00:20 153 3 gusting 5 18.9
2014-Aug-20 00:07 159 4 gusting 5 18.9
2014-Aug-19 23:45 157 2 gusting 5 18.9
2014-Aug-19 23:34 167 2 gusting 2 18.9
2014-Aug-19 23:23 159 19.4
2014-Aug-19 23:12 159 19.4
2014-Aug-19 22:50 157 19.4
2014-Aug-19 22:28 157 1 20.0